Overview Statistics Trail Chart Weather Telemetry Raw packets
 

This is the latest recevied weather packets stored in our database for station/object KD2SIG. If no packets are shown the sender has not sent any weather packets the latest 10 day(s).

<< 97 98 99 100 101 102 103 >>
Time Temp. Humidity Pressure Rain* Wind** Luminosity Snow
1787870502 23.89° C 79% 1012.4 hPa 0 mm - 36 W/m² -
1787870197 23.89° C 78% 1012.8 hPa 0 mm - 41 W/m² -
1787869892 24.44° C 77% 1012.5 hPa 0 mm - 49 W/m² -
1787869590 24.44° C 77% 1012.6 hPa 0 mm - 58 W/m² -
1787869287 24.44° C 77% 1012.7 hPa 0 mm - 87 W/m² -
1787868985 23.89° C 78% 1012.5 hPa 0 mm - 107 W/m² -
1787868684 23.89° C 78% 1012.5 hPa 0 mm - 43 W/m² -
1787868383 24.44° C 77% 1012.4 hPa 0 mm - 128 W/m² -
1787868078 24.44° C 76% 1012.4 hPa 0 mm - 94 W/m² -
1787867773 23.89° C 77% 1012.5 hPa 0 mm - 155 W/m² -
1787867468 23.33° C 77% 1012.6 hPa 0 mm - 63 W/m² -
1787867163 23.89° C 76% 1012.7 hPa 0 mm - 55 W/m² -
1787866858 23.89° C 76% 1012.6 hPa 0 mm - 102 W/m² -
1787866561 24.44° C 76% 1012.5 hPa 0 mm - 114 W/m² -
1787866252 24.44° C 75% 1012.6 hPa 0 mm - 103 W/m² -
1787865948 25° C 74% 1012.7 hPa 0 mm - 104 W/m² -
1787865643 24.44° C 74% 1012.6 hPa 0 mm - 196 W/m² -
1787865343 24.44° C 75% 1012.7 hPa 0 mm - 198 W/m² -
1787865038 23.89° C 77% 1012.8 hPa 0 mm - 46 W/m² -
1787864734 23.89° C 76% 1012.6 hPa 0 mm - 27 W/m² -
1787864434 23.89° C 75% 1012.7 hPa 0 mm - 45 W/m² -
1787864132 23.89° C 75% 1012.5 hPa 0 mm - 89 W/m² -
1787863832 23.89° C 75% 1012.6 hPa 0 mm - 82 W/m² -
1787863530 24.44° C 75% 1012.3 hPa 0 mm - 86 W/m² -
1787863226 25° C 75% 1012.5 hPa 0 mm - 104 W/m² -

* Rain latest hour (hover to see other rain measurements)
** Current wind speed in m/s (hover to see current wind gust speed)